Tracking 29892 objects as of 21-Nov-2024
HD Live streaming from Space Station
objects crossing your sky now

SL-8 R/B

Track SL-8 R/B now!
10-day predictions


NORAD ID: 32053
Int'l Code: 2007-038B
Perigee: 963.6 km
Apogee: 1,003.4 km
Inclination: 83.0 °
Period: 104.6 minutes
Semi major axis: 7354 km
RCS: 6.4136 m2 (large)
Launch date: September 11, 2007
Source: Commonwealth of Independent States (former USSR) (CIS)
Launch site: PLESETSK MISSILE AND SPACE COMPLEX (PKMTR)

Note: This is a ROCKET BODY
Your satellite tracking list
Your tracking list is empty




NASA's NSSDC Master Catalog

Two Line Element Set (TLE):
1 32053U 07038B   24325.82739417  .00000180  00000-0  16786-3 0  9998
2 32053  82.9781 256.4638 0027042  17.0823 355.1487 13.76489712863772
Source of the keplerian elements: AFSPC